Stations météo

réclame
Mon MeteoGroup
Hoorn-A, Pays-Bas (6212): Température de l'air & dewpoint: 14.04.2018 22:00:00 - 20.04.2018 22:00:00 (CEST)Hoorn-A, Pays-Bas (6212): Vitesse du vent & gusts: 14.04.2018 22:00:00 - 20.04.2018 22:00:00 (CEST)Hoorn-A, Pays-Bas (6212): Direction du vent: 14.04.2018 22:00:00 - 20.04.2018 22:00:00 (CEST)Hoorn-A, Pays-Bas (6212): reduced air pressure: 14.04.2018 22:00:00 - 20.04.2018 22:00:00 (CEST)Hoorn-A, Pays-Bas (6212): visibility: 14.04.2018 22:00:00 - 20.04.2018 22:00:00 (CEST)
Date & Time tt [°C] td [°C] ff [km/h] ff [knt] fx [km/h] fx [knt] dd ppp [hPa] vv [km]
20.04.2018 22:00:00 9,8 7,8 18 10 - - N 1023,1 13
20.04.2018 21:00:00 9,5 7,9 26 14 29 16 N 1023,0 7
20.04.2018 20:00:00 9,7 7,8 25 14 29 16 N 1022,4 5
20.04.2018 19:00:00 9,3 7,5 29 16 32 18 NNW 1022,5 4,0
20.04.2018 18:00:00 10,0 7,7 11 6 14 8 NNW 1022,2 5
20.04.2018 17:00:00 10,9 7,7 11 6 25 14 NNW 1022,3 6
20.04.2018 16:00:00 10,6 8,0 18 10 25 14 W 1022,4 6
20.04.2018 15:00:00 11,4 8,1 14 8 22 12 SW 1022,4 6
20.04.2018 14:00:00 11,9 8,1 26 14 25 14 W 1022,5 7
20.04.2018 13:00:00 13,0 8,4 16 9 18 10 SW 1022,5 7
20.04.2018 12:00:00 11,7 8,1 16 9 18 10 W 1022,5 6
20.04.2018 11:00:00 11,8 7,8 22 12 29 16 SW 1022,3 6
20.04.2018 10:00:00 11,8 7,6 16 9 25 14 S 1021,8 7
20.04.2018 09:00:00 12,1 7,3 11 6 14 8 SSW 1021,5 6
20.04.2018 08:00:00 13,3 7,1 14 8 18 10 S 1021,7 8
20.04.2018 07:00:00 14,3 7,1 18 10 22 12 SSW 1021,5 9
20.04.2018 06:00:00 15,6 6,9 18 10 22 12 S 1021,6 10
20.04.2018 05:00:00 13,7 7,1 11 6 11 6 S 1022,1 8
20.04.2018 04:00:00 13,8 7,5 8 4 11 6 SSE 1022,4 9
20.04.2018 03:00:00 14,0 7,4 4 2 7 4 ESE 1022,4 10
20.04.2018 02:00:00 15,6 6,3 5 3 4 2 NE 1022,7 10
20.04.2018 01:00:00 14,2 6,7 4 2 11 6 NNE 1023,1 13
20.04.2018 00:00:00 19,4 5,3 11 6 14 8 NE 1023,2 15
19.04.2018 23:00:00 19,8 7,7 11 6 11 6 NNE 1023,6 19
19.04.2018 22:00:00 20,1 6,1 8 4 7 4 N 1024,0 10
19.04.2018 21:00:00 21,0 7,6 4 2 7 4 N 1023,8 14
19.04.2018 20:00:00 20,5 5,2 7 4 7 4 NW 1023,8 13
19.04.2018 19:00:00 18,7 5,9 8 4 7 4 WNW 1024,3 10
19.04.2018 18:00:00 17,5 8,2 8 4 7 4 W 1024,8 10
19.04.2018 17:00:00 18,4 8,2 8 4 7 4 SSW 1025,0 10
19.04.2018 16:00:00 16,8 8,3 9 5 14 8 SSE 1025,4 10
19.04.2018 15:00:00 20,5 7,9 16 9 22 12 S 1025,8 10
19.04.2018 14:00:00 20,0 7,6 22 12 25 14 S 1025,9 10
19.04.2018 13:00:00 19,4 7,2 26 14 29 16 SSE 1026,1 10
19.04.2018 12:00:00 18,5 9,2 31 17 29 16 SSE 1026,3 10
19.04.2018 11:00:00 16,1 8,7 35 19 36 19 SSE 1026,4 10
19.04.2018 10:00:00 14,3 8,4 42 23 40 21 SSE 1026,3 10
19.04.2018 09:00:00 14,2 8,4 42 23 40 21 SSE 1026,4 10
19.04.2018 08:00:00 14,0 8,5 39 21 36 19 SSE 1026,3 10
19.04.2018 07:00:00 15,2 8,6 29 16 32 18 SSE 1026,3 15
19.04.2018 06:00:00 14,1 8,3 39 21 40 21 SSE 1026,4 10
19.04.2018 05:00:00 15,9 8,1 36 19 43 23 SE 1026,8 16
19.04.2018 04:00:00 17,1 7,3 40 21 47 25 E 1026,9 17
19.04.2018 03:00:00 16,5 7,9 44 24 43 23 E 1027,2 10
19.04.2018 02:00:00 16,7 9,1 50 27 47 25 E 1027,8 10
19.04.2018 01:00:00 17,2 10,4 46 25 43 23 E 1028,1 10
19.04.2018 00:00:00 14,7 10,2 46 25 43 23 ENE 1028,4 10
18.04.2018 23:00:00 16,2 10,5 34 18 32 18 ENE 1028,8 10
18.04.2018 22:00:00 16,9 7,7 31 17 29 16 NE 1029,2 10
18.04.2018 21:00:00 17,2 7,6 21 11 18 10 NNE 1029,3 10
18.04.2018 20:00:00 13,1 8,4 11 6 18 10 NNE 1029,3 10
18.04.2018 19:00:00 13,6 8,6 2 1 7 4 SSW 1029,5 10
18.04.2018 18:00:00 13,8 8,3 9 5 11 6 S 1029,7 10
18.04.2018 17:00:00 14,3 8,5 13 7 18 10 SSE 1030,0 10
18.04.2018 16:00:00 14,6 8,7 22 12 25 14 SSE 1030,2 10
18.04.2018 15:00:00 13,1 8,5 26 14 29 16 SSW 1030,7 10
18.04.2018 14:00:00 12,1 7,9 29 16 - - SSE 1030,5 10
18.04.2018 13:00:00 11,6 7,6 29 16 29 16 SSE 1030,7 10
18.04.2018 12:00:00 10,9 7,4 29 16 29 16 S 1030,6 10
18.04.2018 11:00:00 10,9 7,3 31 17 29 16 S 1030,6 10
18.04.2018 10:00:00 10,7 7,3 29 16 29 16 S 1030,2 10
18.04.2018 09:00:00 11,9 7,5 31 17 29 16 S 1029,7 10
18.04.2018 08:00:00 11,9 7,4 31 17 29 16 S 1029,3 10
18.04.2018 07:00:00 12,3 7,1 29 16 29 16 S 1028,5 10
18.04.2018 06:00:00 12,6 7,2 29 16 32 18 S 1028,3 10
18.04.2018 05:00:00 12,2 6,5 37 20 36 19 S 1028,0 10
18.04.2018 04:00:00 13,4 5,0 39 21 40 21 S 1027,2 10
18.04.2018 03:00:00 12,9 4,6 42 23 43 23 S 1026,9 10
18.04.2018 02:00:00 11,8 5,7 44 24 47 25 S 1026,5 10
18.04.2018 01:00:00 12,7 4,7 50 27 47 25 S 1026,3 10
18.04.2018 00:00:00 12,1 4,6 50 27 47 25 S 1025,8 10
17.04.2018 23:00:00 12,4 4,2 48 26 47 25 S 1025,7 10
17.04.2018 22:00:00 11,5 5,6 36 19 43 23 S 1025,5 30
17.04.2018 21:00:00 12,0 5,4 50 27 43 23 S 1024,6 10
17.04.2018 20:00:00 11,9 5,4 42 23 47 25 SSW 1023,6 10
17.04.2018 19:00:00 11,6 6,3 46 25 43 23 S 1023,6 10
17.04.2018 18:00:00 11,7 6,8 50 27 47 25 S 1023,3 10
17.04.2018 17:00:00 11,7 6,9 50 27 47 25 S 1023,6 10
17.04.2018 16:00:00 11,4 6,9 52 28 47 25 SSE 1023,8 10
17.04.2018 15:00:00 10,7 6,9 40 21 43 23 SSE 1023,7 16
17.04.2018 14:00:00 10,5 6,7 48 26 47 25 SSE 1023,2 -
17.04.2018 13:00:00 10,1 6,4 52 28 50 27 S 1022,9 -
17.04.2018 12:00:00 10,2 6,3 52 28 50 27 SSW 1023,1 -
17.04.2018 11:00:00 9,6 5,9 50 27 50 27 S 1023,0 -
17.04.2018 10:00:00 9,6 5,5 52 28 50 27 S 1022,1 -
17.04.2018 09:00:00 9,2 5,7 44 24 43 23 S 1021,9 -
17.04.2018 08:00:00 9,3 5,8 42 23 40 21 S 1021,9 -
17.04.2018 07:00:00 8,9 5,8 44 24 43 23 S 1021,1 -
17.04.2018 06:00:00 8,9 5,8 46 25 47 25 S 1021,2 -
17.04.2018 05:00:00 8,5 5,5 31 17 36 19 SSW 1020,7 -
17.04.2018 04:00:00 8,7 5,4 37 20 36 19 S 1020,3 -
17.04.2018 03:00:00 8,4 6,3 34 18 32 18 S 1020,4 -
17.04.2018 02:00:00 8,3 6,4 34 18 32 18 S 1020,2 -
17.04.2018 01:00:00 8,5 6,3 31 17 32 18 S 1019,8 -
17.04.2018 00:00:00 8,6 6,3 34 18 36 19 S 1019,4 -
16.04.2018 23:00:00 8,8 6,4 39 21 36 19 S 1019,1 -
16.04.2018 22:00:00 8,6 6,6 37 20 36 19 S 1018,8 -
16.04.2018 21:00:00 8,6 6,7 35 19 36 19 S 1018,1 -
16.04.2018 20:00:00 8,6 6,9 39 21 36 19 S 1017,5 10
16.04.2018 19:00:00 8,6 7,0 41 22 40 21 S 1016,6 10
16.04.2018 18:00:00 8,6 7,3 41 22 36 19 S 1016,6 10
16.04.2018 17:00:00 8,5 7,4 37 20 36 19 S 1016,4 9
16.04.2018 16:00:00 8,4 7,3 35 19 36 19 S 1016,2 9
16.04.2018 15:00:00 8,4 7,2 35 19 36 19 S 1015,9 10
16.04.2018 14:00:00 8,3 7,2 35 19 36 19 S 1015,2 11
16.04.2018 13:00:00 8,3 7,2 34 18 32 18 S 1014,6 -
16.04.2018 12:00:00 8,3 7,2 35 19 36 19 S 1014,2 -
16.04.2018 11:00:00 8,4 7,2 37 20 36 19 S 1013,7 -
16.04.2018 10:00:00 8,2 7,1 34 18 32 18 S 1013,0 -
16.04.2018 09:00:00 8,4 7,3 29 16 36 19 S 1012,2 -
16.04.2018 08:00:00 8,3 7,2 35 19 36 19 S 1011,6 -
16.04.2018 07:00:00 8,5 7,4 34 18 32 18 S 1011,0 -
16.04.2018 06:00:00 8,4 7,4 34 18 36 19 S 1010,4 -
16.04.2018 05:00:00 8,7 7,8 41 22 40 21 S 1010,3 -
16.04.2018 04:00:00 9,2 7,7 34 18 36 19 S 1010,0 -
16.04.2018 03:00:00 9,1 7,9 35 19 32 18 S 1009,6 -
16.04.2018 02:00:00 9,9 9,1 24 13 36 19 S 1009,7 -
16.04.2018 01:00:00 10,5 9,1 21 11 36 19 S 1009,7 -
16.04.2018 00:00:00 10,6 9,5 22 12 25 14 S 1009,9 -
15.04.2018 23:00:00 10,7 9,9 18 10 18 10 SSE 1009,9 -
15.04.2018 22:00:00 9,4 9,1 18 10 18 10 SSE 1010,3 -
15.04.2018 21:00:00 10,0 9,7 15 8 14 8 SSE 1010,1 -
15.04.2018 20:00:00 10,1 9,8 13 7 14 8 S 1009,7 -
15.04.2018 19:00:00 10,5 9,9 13 7 14 8 S 1009,8 -
15.04.2018 18:00:00 10,7 9,7 13 7 14 8 S 1009,8 -
15.04.2018 17:00:00 10,7 9,6 11 6 18 10 S 1010,2 -
15.04.2018 16:00:00 10,3 9,4 16 9 18 10 S 1010,6 -
15.04.2018 15:00:00 9,7 9,4 16 9 18 10 E 1010,9 -
15.04.2018 14:00:00 9,4 9,3 21 11 22 12 E 1011,3 -
15.04.2018 13:00:00 9,0 8,9 22 12 25 14 E 1011,7 -
15.04.2018 12:00:00 8,4 8,4 26 14 22 12 ENE 1011,9 -
15.04.2018 11:00:00 8,0 7,8 24 13 25 14 ENE 1012,5 -
15.04.2018 10:00:00 7,9 7,8 26 14 25 14 ENE 1012,9 -
15.04.2018 09:00:00 7,9 7,7 28 15 25 14 ENE 1013,3 -
15.04.2018 08:00:00 8,3 7,9 28 15 25 14 ENE 1013,8 -
15.04.2018 07:00:00 8,3 7,8 26 14 25 14 NE 1014,0 -
15.04.2018 06:00:00 8,6 7,7 22 12 22 12 ENE 1014,2 -
15.04.2018 05:00:00 8,4 7,7 22 12 25 14 ENE 1014,7 -
15.04.2018 04:00:00 8,5 7,6 26 14 25 14 ENE 1015,4 -
15.04.2018 03:00:00 8,7 7,7 24 13 22 12 ENE 1016,0 -
15.04.2018 02:00:00 8,5 7,3 22 12 22 12 ENE 1016,8 -
15.04.2018 01:00:00 8,1 7,2 18 10 18 10 ENE 1017,3 -
15.04.2018 00:00:00 7,8 7,2 13 7 14 8 ENE 1017,4 -
14.04.2018 23:00:00 7,9 7,2 7 4 7 4 ENE 1017,9 3,3
14.04.2018 22:00:00 7,9 7,0 8 4 11 6 NE 1018,0 2,8

tt = Température de l'air
td = dewpoint
ff = Vitesse du vent
fx = gusts
dd = Direction du vent
ppp = reduced air pressure
vv = visibility

stations d'obs. à proximité